KN4URY Weather Reports


Display with metric or nautical units.
time (UTC)temp
F
wind
direction
speed
MPH
gust
MPH
rain 1hr
in
rain 24hr
in
rain mn
in
humidity
%
barometer
mb
20260905152816 90 341 0.0 5.0 0.00 0.09 0.01 65 1012.3
20260905152315 90 341 1.0 5.0 0.00 0.09 0.01 63 1012.2
20260905151813 90 341 0.0 2.0 0.00 0.09 0.01 64 1012.3
20260905151312 89 341 0.0 2.0 0.00 0.09 0.01 68 1012.3
20260905150834 88 341 1.0 2.0 0.00 0.09 0.01 66 1012.5
20260905150334 88 341 0.0 2.0 0.00 0.09 0.01 67 1012.5
20260905145831 87 341 0.0 3.0 0.00 0.09 0.01 67 1012.5
20260905145357 86 341 1.0 3.0 0.00 0.09 0.01 68 1012.5
20260905144835 86 341 1.0 3.0 0.00 0.09 0.01 68 1012.6
20260905144315 85 341 0.0 2.0 0.00 0.09 0.01 70 1012.3
20260905143842 85 341 0.0 2.0 0.00 0.09 0.01 71 1012.4
20260905143321 84 341 1.0 2.0 0.00 0.09 0.01 74 1012.4
20260905142820 84 341 1.0 3.0 0.00 0.09 0.01 74 1012.4
20260905142319 83 341 1.0 3.0 0.00 0.09 0.01 75 1012.3
20260905141814 83 341 0.0 3.0 0.00 0.09 0.01 77 1012.3
20260905141315 82 341 1.0 3.0 0.00 0.09 0.01 78 1012.4
20260905140814 82 341 1.0 3.0 0.00 0.09 0.01 80 1012.2
20260905140313 81 341 1.0 3.0 0.00 0.09 0.01 80 1012.1
20260905135842 81 341 0.0 2.0 0.00 0.09 0.01 80 1012.2
20260905135320 81 341 0.0 3.0 0.00 0.09 0.01 82 1012.0
20260905134819 80 341 1.0 3.0 0.00 0.09 0.01 83 1011.9
20260905134318 79 341 1.0 3.0 0.00 0.09 0.01 84 1011.7
20260905133845 79 341 0.0 1.0 0.00 0.09 0.01 85 1011.7
20260905133323 79 341 0.0 1.0 0.00 0.09 0.01 85 1011.6
20260905132822 78 341 0.0 1.0 0.00 0.09 0.01 86 1011.7
20260905132344 78 341 0.0 3.0 0.00 0.09 0.01 86 1011.7
20260905131822 77 341 0.0 5.0 0.00 0.09 0.01 87 1011.8
20260905131321 77 341 1.0 5.0 0.00 0.09 0.01 87 1011.7
20260905130822 77 341 0.0 2.0 0.00 0.09 0.01 88 1011.7
20260905130322 76 341 0.0 2.0 0.00 0.09 0.01 87 1011.6
20260905125822 76 341 0.0 3.0 0.00 0.09 0.01 88 1011.6
20260905125348 76 341 0.0 2.0 0.00 0.09 0.01 88 1011.6
20260905124828 76 341 0.0 1.0 0.00 0.09 0.01 88 1011.5
20260905124327 76 341 0.0 3.0 0.00 0.09 0.01 88 1011.6
20260905123828 76 341 1.0 3.0 0.00 0.09 0.01 88 1011.7
20260905123326 75 341 0.0 3.0 0.00 0.09 0.01 89 1011.8
20260905122828 75 341 0.0 6.0 0.00 0.09 0.01 88 1011.8
20260905122327 75 341 1.0 6.0 0.00 0.09 0.01 89 1011.7
20260905121827 75 341 1.0 3.0 0.00 0.09 0.01 89 1011.7
20260905121328 74 341 0.0 4.0 0.00 0.09 0.01 89 1011.5
20260905120826 74 341 0.0 2.0 0.00 0.09 0.01 90 1011.7
20260905120325 74 341 1.0 2.0 0.00 0.09 0.01 91 1011.6
20260905115823 73 341 0.0 1.0 0.00 0.09 0.01 92 1011.6
20260905115322 73 341 0.0 2.0 0.00 0.09 0.01 92 1011.4
20260905114821 73 341 0.0 2.0 0.00 0.09 0.01 91 1011.4
20260905114321 73 341 0.0 1.0 0.00 0.09 0.01 92 1011.3
20260905113821 73 341 0.0 3.0 0.00 0.09 0.01 92 1011.3
20260905113345 72 341 1.0 3.0 0.00 0.09 0.01 92 1011.2
20260905112825 72 341 0.0 1.0 0.00 0.09 0.01 93 1011.3
20260905112325 72 341 0.0 2.0 0.00 0.09 0.01 93 1011.3
20260905111831 72 341 1.0 2.0 0.00 0.09 0.01 93 1011.2
20260905111334 72 341 0.0 1.0 0.00 0.09 0.01 93 1011.2
20260905110833 72 341 0.0 1.0 0.00 0.09 0.01 93 1011.3
20260905110333 72 341 0.0 1.0 0.00 0.09 0.01 93 1011.4
20260905105834 72 341 0.0 1.0 0.00 0.09 0.01 93 1011.2
20260905105334 72 341 0.0 1.0 0.00 0.09 0.01 93 1011.2
20260905104833 72 341 0.0 2.0 0.00 0.09 0.01 93 1011.2
20260905104333 72 341 1.0 2.0 0.00 0.09 0.01 93 1011.2
20260905103835 72 341 0.0 2.0 0.00 0.09 0.01 93 1011.2
20260905103335 72 341 1.0 3.0 0.00 0.09 0.01 93 1011.2
20260905102835 72 341 0.0 3.0 0.00 0.09 0.01 93 1011.1
20260905102336 72 341 1.0 4.0 0.00 0.09 0.01 93 1011.2
20260905101837 72 341 1.0 4.0 0.00 0.09 0.01 93 1011.2
20260905101334 72 341 1.0 4.0 0.00 0.09 0.01 93 1011.2
20260905100834 72 341 0.0 4.0 0.00 0.09 0.01 93 1011.1
20260905100334 72 341 1.0 4.0 0.01 0.09 0.01 93 1011.1
20260905095832 72 341 0.0 3.0 0.01 0.09 0.01 93 1011.1
20260905095330 72 341 1.0 3.0 0.01 0.09 0.01 94 1011.0
20260905094837 72 341 1.0 2.0 0.01 0.09 0.01 94 1011.0
20260905094332 72 341 0.0 1.0 0.01 0.09 0.01 94 1010.9
20260905093831 72 341 0.0 1.0 0.01 0.09 0.01 94 1010.9
20260905093333 72 341 0.0 1.0 0.01 0.09 0.01 94 1011.0
20260905092834 71 341 0.0 2.0 0.01 0.09 0.01 95 1010.9
20260905092334 71 341 0.0 2.0 0.01 0.09 0.01 95 1011.0
20260905091835 71 341 1.0 1.0 0.01 0.09 0.01 96 1011.1
20260905091334 71 341 0.0 2.0 0.01 0.09 0.01 96 1011.1
20260905090833 71 341 0.0 2.0 0.01 0.09 0.01 96 1011.1
20260905090331 71 341 0.0 1.0 0.00 0.08 0.00 96 1011.1
20260905085829 71 341 0.0 1.0 0.00 0.08 0.00 96 1011.2
20260905085328 71 341 0.0 1.0 0.00 0.08 0.00 96 1011.3
20260905084828 71 341 0.0 1.0 0.00 0.08 0.00 96 1011.4
20260905084327 71 341 0.0 0.0 0.00 0.08 0.00 96 1011.5
20260905083824 71 341 0.0 0.0 0.00 0.08 0.00 96 1011.4
20260905083322 71 341 0.0 0.0 0.00 0.08 0.00 95 1011.4
20260905082823 71 341 0.0 0.0 0.00 0.08 0.00 95 1011.3
20260905082351 71 341 0.0 0.0 0.00 0.08 0.00 95 1011.4
20260905081830 71 341 0.0 1.0 0.00 0.08 0.00 95 1011.3
20260905081355 71 341 0.0 3.0 0.00 0.08 0.00 95 1011.5
20260905080834 71 341 0.0 3.0 0.00 0.08 0.00 95 1011.5
20260905080331 71 341 1.0 2.0 0.00 0.08 0.00 95 1011.6
20260905075830 71 341 0.0 3.0 0.00 0.08 0.00 95 1011.7
20260905075330 71 341 1.0 4.0 0.00 0.08 0.00 96 1011.6
20260905074827 71 341 1.0 4.0 0.00 0.08 0.00 96 1011.7
20260905074320 71 341 1.0 4.0 0.00 0.08 0.00 96 1011.8
20260905073819 71 341 1.0 4.0 0.00 0.08 0.00 95 1011.7
20260905073316 71 341 0.0 2.0 0.00 0.08 0.00 95 1011.7
20260905072816 71 341 0.0 2.0 0.00 0.08 0.00 95 1011.6
20260905072317 71 341 1.0 2.0 0.00 0.08 0.00 95 1011.6
20260905071843 71 341 0.0 1.0 0.00 0.08 0.00 95 1011.7
20260905071326 71 341 0.0 1.0 0.00 0.08 0.00 95 1011.7
20260905070825 71 341 0.0 2.0 0.00 0.08 0.00 95 1011.9
20260905070325 71 341 0.0 2.0 0.00 0.08 0.00 95 1012.0
20260905065829 71 341 0.0 2.0 0.00 0.08 0.00 95 1012.2
20260905065323 71 341 1.0 4.0 0.00 0.08 0.00 96 1012.3
20260905064824 71 341 1.0 4.0 0.00 0.08 0.00 96 1012.4
20260905064351 71 341 1.0 3.0 0.00 0.08 0.00 96 1012.4
20260905063828 71 341 0.0 4.0 0.00 0.08 0.00 96 1012.5
20260905063328 71 341 1.0 4.0 0.00 0.08 0.00 96 1012.7
20260905062827 71 341 1.0 3.0 0.00 0.08 0.00 97 1012.6
20260905062326 71 341 0.0 3.0 0.00 0.08 0.00 97 1012.5
20260905061824 71 341 0.0 2.0 0.00 0.08 0.00 96 1012.6
20260905061323 71 341 0.0 1.0 0.00 0.08 0.00 96 1012.6
20260905060824 71 341 0.0 0.0 0.00 0.08 0.00 96 1012.7
20260905060323 71 341 0.0 0.0 0.00 0.08 0.00 96 1012.7
20260905055821 71 341 0.0 2.0 0.00 0.08 0.00 96 1012.9
20260905055318 71 341 0.0 2.0 0.00 0.08 0.00 96 1012.9
20260905054818 71 341 0.0 1.0 0.00 0.08 0.00 96 1013.0
20260905054315 71 341 0.0 1.0 0.00 0.08 0.00 96 1013.1
20260905053842 71 341 0.0 4.0 0.00 0.08 0.00 96 1013.2
20260905053318 71 341 0.0 4.0 0.00 0.08 0.08 96 1013.1
20260905052818 71 341 1.0 5.0 0.00 0.08 0.08 96 1013.3
20260905052318 71 341 2.0 5.0 0.00 0.08 0.08 96 1013.5
20260905051816 71 341 1.0 3.0 0.00 0.08 0.08 96 1013.6
20260905051322 71 341 1.0 3.0 0.00 0.08 0.08 96 1013.6
20260905050820 71 341 1.0 2.0 0.00 0.08 0.08 97 1013.5
20260905050318 71 341 0.0 2.0 0.00 0.08 0.08 97 1013.5
20260905045813 71 341 0.0 3.0 0.00 0.08 0.08 97 1013.8
20260905045313 71 341 1.0 4.0 0.00 0.08 0.08 97 1013.8
20260905044813 71 341 1.0 4.0 0.00 0.08 0.08 97 1013.9
20260905044312 71 341 0.0 1.0 0.00 0.08 0.08 97 1013.9
20260905043811 71 341 0.0 1.0 0.00 0.08 0.08 97 1014.1
20260905043357 71 341 0.0 1.0 0.00 0.08 0.08 97 1014.0
20260905042836 71 341 0.0 0.0 0.00 0.08 0.08 97 1014.0
20260905042316 71 341 0.0 0.0 0.00 0.08 0.08 97 1014.1
20260905041813 71 341 0.0 0.0 0.00 0.08 0.08 97 1014.1
20260905041312 71 341 0.0 1.0 0.00 0.08 0.08 97 1014.2
20260905040856 71 341 0.0 1.0 0.00 0.08 0.08 97 1014.3
20260905040337 71 341 0.0 0.0 0.00 0.08 0.08 97 1014.3
20260905035830 70 341 0.0 0.0 0.00 0.08 0.08 97 1014.2
20260905035329 70 341 0.0 0.0 0.00 0.08 0.08 97 1014.2
20260905034828 70 341 0.0 0.0 0.00 0.08 0.08 96 1014.2
20260905034328 71 341 0.0 0.0 0.00 0.08 0.08 97 1014.3
20260905033826 71 341 0.0 0.0 0.00 0.08 0.08 97 1014.3
20260905033325 71 341 0.0 0.0 0.00 0.08 0.08 97 1014.3
20260905032833 71 341 0.0 0.0 0.00 0.08 0.08 97 1014.2
20260905032331 71 341 0.0 0.0 0.00 0.08 0.08 97 1014.3
20260905031829 71 341 0.0 0.0 0.00 0.08 0.08 96 1014.2
20260905031324 71 341 0.0 0.0 0.00 0.08 0.08 96 1014.3
20260905030823 71 341 0.0 0.0 0.00 0.08 0.08 96 1014.2
20260905030323 71 341 0.0 0.0 0.00 0.08 0.08 96 1014.3
20260905025822 71 341 0.0 0.0 0.00 0.08 0.08 96 1014.4
20260905025321 71 341 0.0 0.0 0.00 0.08 0.08 96 1014.4
20260905024821 71 341 0.0 0.0 0.00 0.08 0.08 96 1014.2
20260905024347 71 341 0.0 0.0 0.00 0.08 0.08 96 1014.3
20260905023825 71 341 0.0 0.0 0.00 0.08 0.08 96 1014.2
20260905023342 71 341 0.0 0.0 0.00 0.08 0.08 96 1014.2
20260905022822 72 341 0.0 1.0 0.00 0.08 0.08 96 1014.4
20260905022322 72 341 0.0 1.0 0.00 0.08 0.08 96 1014.5
20260905021818 72 341 0.0 1.0 0.00 0.08 0.08 96 1014.7
20260905021318 72 341 0.0 2.0 0.00 0.08 0.08 96 1014.7
20260905020844 72 341 0.0 4.0 0.00 0.08 0.08 96 1014.8
20260905020324 72 341 1.0 4.0 0.00 0.08 0.08 96 1015.0
20260905015824 72 341 0.0 1.0 0.00 0.08 0.08 96 1014.9
20260905015323 72 341 0.0 1.0 0.00 0.08 0.08 96 1015.2
20260905014823 72 341 0.0 1.0 0.00 0.08 0.08 96 1015.2
20260905014349 72 341 0.0 1.0 0.00 0.08 0.08 96 1015.1
20260905013830 72 341 0.0 0.0 0.00 0.08 0.08 95 1015.2
20260905013331 72 341 0.0 0.0 0.00 0.08 0.08 95 1015.0
20260905012829 72 341 0.0 0.0 0.00 0.08 0.08 95 1014.8
20260905012324 72 341 0.0 0.0 0.00 0.08 0.08 94 1014.4
20260905011827 72 341 0.0 1.0 0.00 0.08 0.08 94 1014.2
20260905011354 73 341 0.0 1.0 0.00 0.08 0.08 94 1013.9
20260905010834 73 341 0.0 1.0 0.00 0.08 0.08 94 1013.9
20260905010335 73 341 0.0 1.0 0.00 0.08 0.08 94 1013.8
20260905005836 73 341 0.0 1.0 0.00 0.08 0.08 94 1013.6
20260905005337 73 341 0.0 1.0 0.00 0.08 0.08 94 1013.5
20260905004817 73 341 0.0 1.0 0.00 0.08 0.08 93 1013.5
20260905004318 73 341 0.0 3.0 0.00 0.08 0.08 93 1013.3
20260905003818 73 341 0.0 3.0 0.00 0.08 0.08 93 1013.3
20260905003319 73 341 0.0 1.0 0.00 0.08 0.08 93 1012.8
20260905002820 74 341 0.0 1.0 0.00 0.08 0.08 92 1012.3
20260905002342 74 341 0.0 1.0 0.00 0.08 0.08 92 1011.9
20260905001819 74 341 0.0 2.0 0.00 0.08 0.08 91 1011.8
20260905001347 74 341 1.0 2.0 0.00 0.08 0.08 91 1011.3
20260905000826 74 341 0.0 3.0 0.00 0.08 0.08 91 1011.4
20260905000325 74 341 1.0 3.0 0.00 0.08 0.08 91 1011.8
20260904235823 75 341 0.0 1.0 0.00 0.08 0.08 91 1011.3
20260904235323 75 341 0.0 1.0 0.00 0.08 0.08 90 1011.7
20260904234821 76 341 0.0 1.0 0.00 0.08 0.08 89 1012.4
20260904234327 76 341 0.0 1.0 0.00 0.08 0.08 88 1013.0
20260904233848 76 341 0.0 6.0 0.00 0.08 0.08 88 1013.7
20260904233327 76 341 0.0 6.0 0.00 0.08 0.08 88 1014.1
20260904232854 77 341 0.0 3.0 0.00 0.08 0.08 88 1014.3
20260904232331 77 341 1.0 3.0 0.00 0.08 0.08 88 1014.4
20260904231831 77 341 0.0 2.0 0.00 0.08 0.08 88 1014.9
20260904231328 77 341 0.0 6.0 0.00 0.08 0.08 88 1014.9
20260904230826 77 341 1.0 6.0 0.00 0.08 0.08 87 1015.0
20260904230326 77 341 0.0 3.0 0.00 0.08 0.08 87 1014.6
20260904225826 78 341 1.0 3.0 0.00 0.08 0.08 87 1014.2
20260904225324 78 341 0.0 9.0 0.00 0.08 0.08 86 1014.2
20260904224829 78 341 1.0 9.0 0.00 0.08 0.08 85 1014.4
20260904224322 79 341 2.0 9.0 0.00 0.08 0.08 86 1014.5
20260904223821 79 341 0.0 2.0 0.03 0.08 0.08 88 1013.4
20260904223320 79 341 0.0 2.0 0.08 0.08 0.08 88 1013.1
20260904222818 78 341 0.0 2.0 0.08 0.08 0.08 89 1013.0
20260904222317 78 341 0.0 2.0 0.08 0.08 0.08 91 1013.1
20260904221811 78 341 0.0 2.0 0.08 0.08 0.08 91 1012.5
20260904221338 78 341 0.0 1.0 0.08 0.08 0.08 91 1012.3
20260904220844 78 341 0.0 8.0 0.08 0.08 0.08 90 1012.2
20260904220322 78 341 0.0 8.0 0.08 0.08 0.08 88 1012.5
20260904215846 79 341 1.0 4.0 0.08 0.08 0.08 89 1013.3
20260904215346 79 341 1.0 2.0 0.08 0.08 0.08 84 1013.6
20260904214850 80 341 0.0 9.0 0.08 0.08 0.08 82 1013.3
20260904213821 88 341 6.0 15.0 0.05 0.05 0.05 68 1012.8
20260904213322 94 341 5.0 13.0 0.00 0.00 0.00 55 1012.3
20260904212821 97 341 1.0 3.0 0.00 0.00 0.00 58 1011.9
20260904212321 98 341 0.0 1.0 0.00 0.00 0.00 51 1011.6
20260904211821 99 341 0.0 2.0 0.00 0.00 0.00 50 1011.5
20260904211319 99 341 0.0 1.0 0.00 0.00 0.00 48 1011.6
20260904210813 100 341 0.0 4.0 0.00 0.00 0.00 48 1011.7
20260904210311 100 341 1.0 5.0 0.00 0.00 0.00 45 1011.7
20260904205835 101 341 1.0 6.0 0.00 0.00 0.00 46 1011.6
20260904205339 101 341 3.0 5.0 0.00 0.00 0.00 45 1011.6
20260904204844 101 341 2.0 5.0 0.00 0.00 0.00 44 1011.5
20260904204346 101 341 2.0 5.0 0.00 0.00 0.00 45 1011.6
20260904203824 102 341 2.0 5.0 0.00 0.00 0.00 44 1011.6
20260904203349 102 341 1.0 5.0 0.00 0.00 0.00 43 1011.6
20260904202821 102 341 1.0 5.0 0.00 0.00 0.00 46 1011.7
20260904202319 102 341 0.0 2.0 0.00 0.00 0.00 47 1011.7
20260904201818 101 341 0.0 1.0 0.00 0.00 0.00 47 1011.8
20260904201318 100 341 0.0 1.0 0.00 0.00 0.00 51 1011.8
20260904200842 99 341 0.0 2.0 0.00 0.00 0.00 51 1011.7
20260904200320 99 341 1.0 2.0 0.00 0.00 0.00 52 1011.7
20260904195820 99 341 0.0 4.0 0.00 0.00 0.00 47 1011.9
20260904195320 101 341 2.0 5.0 0.00 0.00 0.00 45 1011.8
20260904194818 100 341 1.0 5.0 0.00 0.00 0.00 45 1011.9
20260904194318 101 341 2.0 5.0 0.00 0.00 0.00 46 1011.9
20260904193817 101 341 2.0 5.0 0.00 0.00 0.00 46 1012.0
20260904193358 101 341 3.0 5.0 0.00 0.00 0.00 46 1012.3
20260904192836 101 341 2.0 5.0 0.00 0.00 0.00 46 1012.3
20260904192336 101 341 2.0 5.0 0.00 0.00 0.00 44 1012.5
20260904191835 101 341 2.0 5.0 0.00 0.00 0.00 45 1012.5
20260904191333 101 341 2.0 4.0 0.00 0.00 0.00 46 1012.6
20260904190832 101 341 2.0 4.0 0.00 0.00 0.00 44 1012.8
20260904190332 102 341 1.0 6.0 0.00 0.00 0.00 44 1012.9
20260904185856 102 341 1.0 6.0 0.00 0.00 0.00 43 1012.9
20260904185334 105 341 1.0 2.0 0.00 0.00 0.00 44 1013.0
20260904184832 106 341 1.0 2.0 0.00 0.00 0.00 45 1013.1
20260904184326 105 341 1.0 3.0 0.00 0.00 0.00 47 1013.2
20260904183823 104 341 0.0 3.0 0.00 0.00 0.00 45 1013.2
20260904183348 103 341 1.0 6.0 0.00 0.00 0.00 48 1013.5
20260904182854 103 341 2.0 6.0 0.00 0.00 0.00 47 1013.5
20260904182333 102 341 2.0 4.0 0.00 0.00 0.00 46 1013.5
20260904181831 101 341 1.0 3.0 0.00 0.00 0.00 48 1013.7
20260904181330 101 341 1.0 5.0 0.00 0.00 0.00 51 1013.8
20260904180348 100 341 2.0 7.0 0.00 0.00 0.00 47 1014.0
20260904175825 100 341 1.0 5.0 0.00 0.00 0.00 50 1013.9
20260904175324 98 341 1.0 5.0 0.00 0.00 0.00 49 1014.0
20260904174823 99 341 3.0 5.0 0.00 0.00 0.00 50 1014.2
20260904174322 98 341 0.0 5.0 0.00 0.00 0.00 53 1014.2
20260904173821 98 341 2.0 5.0 0.00 0.00 0.00 51 1014.2
20260904173347 98 341 2.0 5.0 0.00 0.00 0.00 53 1014.2
20260904172852 98 341 1.0 3.0 0.00 0.00 0.00 53 1014.3
20260904172328 98 341 1.0 5.0 0.00 0.00 0.00 54 1014.3
20260904171822 98 341 1.0 7.0 0.00 0.00 0.00 52 1014.3
20260904171321 98 341 2.0 7.0 0.00 0.00 0.00 52 1014.3
20260904170820 98 341 1.0 3.0 0.00 0.00 0.00 55 1014.4
20260904170345 98 341 2.0 3.0 0.00 0.00 0.00 55 1014.5
20260904165823 98 341 1.0 7.0 0.00 0.00 0.00 51 1014.5
20260904165321 98 341 2.0 7.0 0.00 0.00 0.00 53 1014.4
20260904164820 97 341 2.0 5.0 0.00 0.00 0.00 52 1014.5
20260904164318 97 341 2.0 5.0 0.00 0.00 0.00 56 1014.5
20260904163816 97 341 1.0 3.0 0.00 0.00 0.00 55 1014.7
20260904163316 98 341 0.0 3.0 0.00 0.00 0.00 55 1014.8
20260904162816 97 341 0.0 4.0 0.00 0.00 0.00 57 1014.8
20260904162314 97 341 1.0 4.0 0.00 0.00 0.00 55 1014.9
20260904161836 96 341 2.0 4.0 0.00 0.00 0.00 55 1015.0
20260904161336 96 341 1.0 4.0 0.00 0.00 0.00 58 1015.1
20260904160835 96 341 1.0 5.0 0.00 0.00 0.00 57 1015.0
20260904160333 95 341 2.0 5.0 0.00 0.00 0.00 57 1014.9
20260904155832 94 341 3.0 4.0 0.00 0.00 0.00 57 1015.0
20260904155331 94 341 0.0 4.0 0.00 0.00 0.00 58 1015.1
20260904154858 94 341 2.0 6.0 0.00 0.00 0.00 60 1015.2
20260904154336 93 341 0.0 3.0 0.00 0.00 0.00 65 1015.2
20260904153833 92 341 1.0 5.0 0.00 0.00 0.00 66 1015.3
20260904153338 92 341 2.0 6.0 0.00 0.00 0.00 66 1015.2